Tracking 31028 objects as of 17-Jul-2025
HD Live streaming from Space Station
objects crossing your sky now

STARLINK-5218

Track STARLINK-5218 now!
10-day predictions
STARLINK-5218 is classified as:


NORAD ID: 55636
Int'l Code: 2023-021J
Perigee: 577.1 km
Apogee: 581.3 km
Inclination: 70.0 °
Period: 96.1 minutes
Semi major axis: 6950 km
RCS: Unknown
Launch date: February 17, 2023
Source: United States (US)
Launch site: AIR FORCE WESTERN TEST RANGE (AFWTR)
Your satellite tracking list
Your tracking list is empty




NASA's NSSDC Master Catalog

Two Line Element Set (TLE):
1 55636U 23021J   25197.91878469 -.00000173  00000-0 -66863-5 0  9996
2 55636  69.9996  78.8526 0002960 269.5464  90.5356 14.98329103132985
Source of the keplerian elements: AFSPC